Regional Weather Roundup
Issued by NWS Northern Indiana

Home | Current Version | Previous Version | Graphics & Text | Print | Product List | Glossary On
Versions: 1 2 3 4 5 6 7 8 9 10 11 12 13 14 15 16 17 18 19 20 21 22 23 24 25 26 27 28 29 30 31 32 33 34 35 36 37 38 39 40 41 42 43 44 45 46 47 48 49 50
000
ASUS43 KIWX 031100
RWRIWX

KIWX WEATHER ROUNDUP
NATIONAL WEATHER SERVICE NORTHERN INDIANA
700 AM EDT THU SEP 03 2015

NOTE: "FAIR" INDICATES FEW OR NO CLOUDS BELOW 12,000 FEET WITH NO
SIGNIFICANT WEATHER AND/OR OBSTRUCTIONS TO VISIBILITY.

* THESE STATIONS ARE NOT UNDER NWS QUALITY CONTROL. THEY ALSO MAY NOT
  REPORT WEATHER SUCH AS PRECIPITATION OR FOG.

INZ001>027-031200-
NORTHERN INDIANA

CITY           SKY/WX    TMP DP  RH WIND       PRES   REMARKS
GARY*          PTCLDY    73  66  78 S6        29.97S
KNOX*          CLEAR     68  68 100 S6        29.98F
SOUTH BEND     CLEAR     70  68  93 SW3       29.99S
ELKHART*       CLEAR     68  68 100 CALM      29.99
GOSHEN         PTCLDY    71  67  87 CALM      29.99R
MONTICELLO*    PTCLDY    71  69  96 CALM      30.00R
ANGOLA*        PTCLDY    70  61  73 CALM      30.00R
FORT WAYNE     PTCLDY    69  66  90 SW5       30.02R
PERU/GRISSOM   CLEAR     69  66  92 SW5       30.01R

$$
INZ028>050-031200-
CENTRAL INDIANA

CITY           SKY/WX    TMP DP  RH WIND       PRES   REMARKS
LAFAYETTE      CLEAR     68  67  96 CALM      30.01R FOG
KOKOMO*        PTCLDY    68  63  83 SW5       30.02R
MUNCIE*        CLEAR     69  67  93 SW3       30.03R
INDIANAPOLIS   PTCLDY    69  66  90 CALM      30.02R

$$
MIZ043>046-050>051-056>058-064>065-071>073-077>080-031200-
SOUTHWEST LOWER MICHIGAN

CITY           SKY/WX    TMP DP  RH WIND       PRES   REMARKS
BATTLE CREEK   PTCLDY    70  67  90 S6        29.98S
BENTON HARBOR  CLEAR     70  67  90 CALM      29.96S
COLDWATER*     CLEAR     68  67  99 SW3       29.99S
HILLSDALE*     PTCLDY    71  70  96 CALM      30.00S
HOLLAND        PTCLDY    71  68  90 S5        29.95F FOG
GRAND RAPIDS   MOCLDY    71  69  93 S5        29.95F THUNDER FOG
KALAMAZOO      PTCLDY    70  66  87 SW7       29.97F
STURGIS*       PTCLDY    66  66 100 CALM      29.99S FOG
THREE RIVERS*  FAIR      67  67  99 CALM      29.98F FOG

$$
OHZ001>008-015>018-024>025-031200-
NORTHWEST OHIO

CITY           SKY/WX    TMP DP  RH WIND       PRES   REMARKS
DEFIANCE       PTCLDY    70  66  87 S3        30.00R
FINDLAY        PTCLDY    69  65  86 SW3       30.00R
TOLEDO EXPRESS CLEAR     70  67  90 W5        29.99R
TOLEDO METCALF CLEAR     70  65  84 SW3       29.99R
LIMA           FAIR      70  67  90 SW3       30.02R FOG

$$
AND FOR LAKE MICHIGAN COASTAL AND OPEN LAKE BUOY OBSERVATIONS

STATION/POSITION TEMP    WIND        PRES    VSBY  WAVE
                 AIR SEA DIR/SP/G                  HT/PER
                 (F)     (DEG/KT/KT) (MB)    (MI)  (FT/S)
CALUMET HARBOR    75     210/  3/  4   N/A
MICHIGAN CITY     75     170/  8/  9   N/A
BURNS HARBOR      76     220/  7/ 10 1015.2S
SAINT JOSEPH      76     190/ 10/ 13 1015.6S
SOUTH LAKE BUOY   74 71  220/ 12/ 14 1012.7F         0
4 MI NW BRIDGMAN  74 73  270/ 10/ 10   N/A           1
MICHIGAN CITY     74 73  230/  6/  6   N/A           1

$$
&&



USA.gov is the U.S. government's official web portal to all federal, state and local government web resources and services.